Lid_Strength_Index
2 4 4 5 10 12 15 13 12 11 12 10 9 7 8 8 10 12 2 1 -0 -0 -1 -1 -2 -1 -1 -2 -2 -2 -2 -2 -2 -2 -2 -2 -2 -2 -2 -2 -2 -2 -1 -2 -2 -2 -2 -2 -2
2 4 5 8 13 15 15 12 11 10 9 8 7 7 8 10 5 4 3 1 -0 -0 -1 -1 -1 -2 -2 -2 -2 -2 -2 -2 -2 -2 -2 -2 -2 -2 -2 -2 -2 -2 -2 -2 -2 -2 -2 -2 -3
3 5 8 10 14 15 14 12 10 9 8 8 8 7 7 8 5 3 2 0 -0 -0 -1 -1 -1 -2 -2 -2 -2 -2 -2 -2 -2 -2 -2 -2 -2 -2 -2 -2 -2 -2 -2 -2 -2 -2 -2 -2 -2
6 7 9 12 14 13 12 10 10 9 9 8 7 8 7 5 3 2 1 0 1 -0 -0 -1 -1 -2 -2 -2 -2 -2 -2 -2 -2 -2 -2 -2 -2 -2 -2 -2 -2 -2 -2 -2 -2 -2 -2 -2 -2
7 9 12 13 13 12 11 10 10 10 10 9 7 8 8 4 3 2 1 1 1 0 -0 -1 -1 -1 -2 -2 -2 -2 -2 -2 -2 -2 -2 -2 -2 -2 -2 -2 -2 -2 -2 -2 -2 -2 -2 -2 -2
9 10 13 15 14 12 11 9 9 11 10 10 8 8 8 4 3 2 1 1 0 0 -0 -1 0 -0 -1 -1 -2 -2 -2 -2 -2 -2 -2 -2 -2 -2 -2 -2 -2 -2 -2 -2 -2 -2 -2 -2 -2
9 11 14 13 14 13 11 9 10 10 10 10 8 9 8 6 3 2 2 1 1 0 -0 -0 -0 -0 0 -0 -1 -2 -2 -2 -2 -2 -2 -2 -2 -2 -2 -2 -2 -2 -2 -2 -2 -2 -2 -2 -2
9 10 13 13 13 13 11 10 9 10 10 9 7 9 9 6 3 3 2 1 0 0 -0 -0 -0 -0 -0 -0 1 -0 -1 -1 -2 -2 -2 -1 -2 -2 -2 -2 -2 -2 -2 -2 -2 -2 -2 -2 -2
9 12 14 14 13 12 10 10 10 9 9 9 8 7 6 5 3 3 4 2 1 1 0 -0 0 -0 -0 0 1 1 0 -0 -1 -1 -0 0 -0 0 1 -1 -2 -2 -2 -2 -2 -2 -2 -1 -1
11 13 13 12 12 12 10 11 10 10 11 9 9 6 4 4 4 4 5 4 3 2 1 0 0 0 -0 -0 0 0 -0 -0 -0 0 1 1 1 1 1 1 -1 -2 -2 -2 -2 -1 -0 2 3
11 13 11 11 10 10 10 11 10 11 12 10 9 7 5 5 5 4 4 4 3 2 1 1 0 -0 0 0 1 0 0 0 0 1 1 2 2 2 2 2 1 1 1 1 2 3 3 3 4
12 11 11 9 9 10 10 10 12 11 10 9 9 5 4 4 5 4 4 5 4 3 1 1 0 0 0 -0 0 -0 -0 0 1 1 1 2 3 4 4 3 3 3 3 3 4 4 5 5 4
12 12 10 9 10 10 10 11 11 11 10 9 9 4 5 4 4 4 3 4 4 3 2 1 1 0 0 0 -0 -0 -0 0 1 1 1 2 3 3 4 4 4 3 4 4 5 5 6 6 6
11 11 11 10 10 10 11 12 11 10 10 10 9 6 5 4 4 5 5 4 4 3 2 1 1 1 0 0 0 -0 -0 0 0 1 0 2 2 3 4 4 5 4 3 4 4 6 7 8 7
10 13 12 12 11 11 11 14 12 11 10 10 10 9 6 5 5 4 3 3 4 3 2 2 1 1 1 1 0 0 -0 -0 -0 0 0 1 1 3 3 4 4 5 3 4 5 7 8 9 8
13 13 16 13 11 11 13 16 13 11 12 10 11 11 10 8 5 4 3 4 4 4 3 2 1 1 1 1 0 0 0 -0 -0 -0 1 0 1 2 3 3 4 3 4 5 6 8 9 9 9
14 17 16 14 11 11 13 15 11 11 11 11 11 11 11 10 10 7 4 3 3 4 3 2 2 2 2 1 1 1 1 0 0 0 0 1 1 1 3 3 4 4 5 6 7 8 9 11 12
16 16 15 16 12 13 14 13 11 10 11 11 11 11 11 10 9 8 8 4 3 3 2 2 2 2 2 2 1 2 1 1 0 0 0 1 1 2 2 2 3 5 6 7 8 9 10 10 12
14 15 16 15 12 13 13 13 12 11 11 12 12 12 11 10 8 9 9 8 5 4 3 2 2 2 2 3 3 2 3 2 2 1 1 0 1 1 2 3 4 6 7 7 9 10 12 12 12
14 15 16 14 12 13 14 14 12 12 11 11 11 11 11 11 10 9 9 10 8 4 3 2 2 1 2 1 2 2 2 5 3 3 2 1 1 1 2 3 4 5 6 8 9 10 12 12 12
14 15 15 15 14 15 15 16 15 13 12 11 11 11 11 11 10 10 10 10 10 8 4 2 2 2 1 1 3 7 7 8 7 7 3 2 1 1 2 2 4 5 6 7 9 10 11 12 13
15 13 13 14 16 18 15 20 16 14 12 12 12 13 12 11 11 10 10 10 10 9 6 3 2 2 2 2 3 3 3 4 4 3 4 6 4 1 1 2 3 4 5 6 7 8 10 10 13
14 12 14 14 16 17 18 19 17 15 14 13 12 12 11 10 11 10 9 9 9 9 9 6 4 3 2 3 3 3 3 3 6 8 6 7 6 4 3 2 3 3 4 5 6 7 8 9 10
11 12 13 15 16 20 18 18 19 16 15 14 12 11 11 10 10 10 10 9 9 9 9 8 6 4 4 4 4 4 4 6 9 9 8 7 7 5 6 5 3 4 4 4 5 6 8 8 9
13 15 19 20 21 21 18 19 17 14 13 13 12 12 11 11 10 10 9 9 10 9 9 9 7 7 6 5 5 6 5 7 8 8 7 8 7 7 4 5 5 4 4 3 3 5 7 7 8
14 15 18 22 22 20 18 19 16 13 12 11 12 11 11 10 10 10 10 10 10 9 9 8 8 8 7 7 6 7 6 5 6 7 6 5 5 5 6 5 4 3 3 3 3 4 6 7 8
13 15 13 17 23 21 18 17 13 12 13 11 11 11 10 10 9 9 9 9 9 9 9 9 8 8 8 8 7 7 7 6 6 7 6 6 6 6 7 6 6 5 4 4 4 5 6 7 8
13 11 15 17 22 23 20 19 16 14 12 11 11 10 10 9 9 9 9 9 9 9 9 9 9 8 8 8 8 7 7 6 7 7 6 6 6 8 8 7 6 6 5 5 5 5 6 7 8
14 15 15 14 17 20 22 18 14 13 12 12 11 10 11 10 9 9 9 9 9 9 9 9 9 9 8 8 8 8 8 7 7 7 6 6 7 8 8 8 7 7 7 6 6 6 6 8 8
14 14 14 18 19 19 18 18 12 12 12 11 11 11 11 11 10 10 10 10 10 10 10 10 9 9 9 9 9 9 8 8 8 7 6 8 8 9 8 9 9 9 8 8 8 7 7 9 9